This demonstration page uses our WeatherBlox Daily Observations layout. Learn more.

Left ArrowRight Arrow

39.51506, -84.39828

Hourly Observations for November 24, 2021

Temp ( °F °C ) Dew Point ( °F °C ) Humidity (%) Winds ( mph kmh ) Pressure ( in mb ) Visibility ( mi km ) Precip ( " mm )
12:15 am 00:15 Clear 25 -3.7 24 -4.7 93 93 Calm 30.31 1026 10 16 0.00 0.00
12:35 am 00:35 Clear 24 -4.3 23 -5 95 95 Calm 30.31 1026 10 16 0.00 0.00
12:55 am 00:55 Clear 26 -3.4 24 -4.6 92 92 Calm 30.30 1026 10 16 0.00 0.00
1:15 am 01:15 Clear 26 -3.6 23 -4.8 92 92 Calm 30.31 1026 10 16 0.00 0.00
1:35 am 01:35 Clear 23 -5 21 -6.2 91 91 Calm 30.30 1026 10 16 0.00 0.00
1:55 am 01:55 Clear 26 -3.3 21 -5.9 82 82 Calm 30.29 1026 10 16 0.00 0.00
2:15 am 02:15 Clear 26 -3.4 22 -5.8 84 84 Calm 30.30 1026 10 16 0.00 0.00
2:35 am 02:35 Clear 23 -5 21 -6.2 91 91 Calm 30.31 1026 10 16 0.00 0.00
2:55 am 02:55 Clear 25 -4.1 22 -5.3 91 91 Calm 30.31 1026 10 16 0.00 0.00
3:15 am 03:15 Clear 23 -5.1 21 -5.9 94 94 Calm 30.32 1027 10 16 0.00 0.00
3:35 am 03:35 Clear 24 -4.6 23 -5.2 96 96 Calm 30.32 1027 10 16 0.00 0.00
3:55 am 03:55 Clear 24 -4.4 23 -5.1 95 95 Calm 30.32 1027 10 16 0.00 0.00
4:15 am 04:15 Clear 24 -4.4 23 -5.1 95 95 Calm 30.32 1027 10 16 0.00 0.00
4:35 am 04:35 Clear 24 -4.2 24 -4.6 97 97 Calm 30.32 1027 10 16 0.00 0.00
4:55 am 04:55 Clear 24 -4.5 23 -5.1 96 96 Calm 30.31 1026 10 16 0.00 0.00
5:15 am 05:15 Clear 24 -4.2 23 -4.8 96 96 Calm 30.32 1027 10 16 0.00 0.00
5:35 am 05:35 Clear 23 -4.8 22 -5.7 94 94 Calm 30.32 1027 10 16 0.00 0.00
5:55 am 05:55 Clear 24 -4.7 22 -5.5 94 94 Calm 30.32 1027 10 16 0.00 0.00
6:15 am 06:15 Clear 23 -5 22 -5.6 96 96 Calm 30.32 1027 10 16 0.00 0.00
6:35 am 06:35 Clear 22 -5.4 21 -6.3 93 93 Calm 30.33 1027 10 16 0.00 0.00
6:55 am 06:55 Clear 22 -5.3 21 -6.3 93 93 Calm 30.33 1027 10 16 0.00 0.00
7:15 am 07:15 Clear 22 -5.3 21 -6.1 94 94 Calm 30.33 1027 10 16 0.00 0.00
7:35 am 07:35 Sunny 23 -5 21 -6 93 93 Calm 30.32 1027 10 16 0.00 0.00
7:55 am 07:55 Sunny 23 -5.2 21 -6 94 94 Calm 30.34 1027 10 16 0.00 0.00
8:15 am 08:15 Sunny 24 -4.3 22 -5.3 93 93 Calm 30.33 1027 10 16 0.00 0.00
8:35 am 08:35 Sunny 29 -1.6 26 -3.3 88 88 Calm 30.32 1027 10 16 0.00 0.00
8:55 am 08:55 Sunny 31 -0.3 25 -3.7 78 78 Calm 30.32 1027 10 16 0.00 0.00
9:15 am 09:15 Sunny 34 0.9 27 -2.7 77 77 Calm 30.31 1027 10 16 0.00 0.00
9:35 am 09:35 Sunny 37 2.6 26 -3.6 64 64 Calm 30.30 1026 10 16 0.00 0.00
9:55 am 09:55 Sunny 39 4.1 25 -4.1 56 56 SW 7 11 30.29 1026 10 16 0.00 0.00
10:15 am 10:15 Sunny 41 5 22 -5.4 47 47 SW 10 17 30.28 1025 10 16 0.00 0.00
10:35 am 10:35 Sunny 44 6.4 22 -5.8 42 42 SW 13 20 30.29 1026 10 16 0.00 0.00
10:55 am 10:55 Sunny 45 7 23 -5 42 42 SW 8 13 30.30 1026 10 16 0.00 0.00
11:15 am 11:15 Sunny 45 7.3 21 -5.9 39 39 SW 9 15 30.29 1026 10 16 0.00 0.00
11:35 am 11:35 Sunny 46 7.9 21 -5.9 37 37 SSW 12 19 30.27 1025 10 16 0.00 0.00
11:55 am 11:55 Sunny 47 8.6 21 -6 35 35 SW 13 20 30.25 1024 10 16 0.00 0.00
12:15 pm 12:15 Sunny 48 9.1 22 -5.6 35 35 SW 13 20 30.25 1024 10 16 0.00 0.00
12:35 pm 12:35 Sunny 49 9.4 22 -5.7 34 34 SSW 15 24 30.24 1024 10 16 0.00 0.00
12:55 pm 12:55 Sunny 49 9.5 23 -5 36 36 SW 9 15 30.24 1024 10 16 0.00 0.00
1:15 pm 13:15 Sunny 52 11 23 -4.9 33 33 SSW 16 26 30.22 1023 10 16 0.00 0.00
1:35 pm 13:35 Sunny 51 10.7 24 -4.7 34 34 SSW 14 22 30.21 1023 10 16 0.00 0.00
1:55 pm 13:55 Sunny 51 10.4 24 -4.6 35 35 SSW 15 24 30.20 1023 10 16 0.00 0.00
2:15 pm 14:15 Sunny 51 10.7 24 -4.4 35 35 SSW 13 20 30.19 1022 10 16 0.00 0.00
2:35 pm 14:35 Sunny 53 11.4 24 -4.2 34 34 S 14 22 30.17 1022 10 16 0.00 0.00
2:55 pm 14:55 Sunny 53 11.5 25 -4.1 34 34 SSW 9 15 30.18 1022 10 16 0.00 0.00
3:15 pm 15:15 Sunny 53 11.9 25 -3.7 34 34 SSW 12 19 30.16 1021 10 16 0.00 0.00
3:35 pm 15:35 Sunny 54 12.2 26 -3.6 33 33 SSW 13 20 30.16 1021 10 16 0.00 0.00
3:55 pm 15:55 Sunny 54 12.3 25 -4 32 32 SSW 18 30 30.15 1021 10 16 0.00 0.00
4:15 pm 16:15 Sunny 55 12.5 25 -4.1 31 31 SSW 15 24 30.15 1021 10 16 0.00 0.00
4:35 pm 16:35 Sunny 54 12.3 25 -3.9 32 32 SSW 13 20 30.15 1021 10 16 0.00 0.00
4:55 pm 16:55 Sunny 53 11.4 26 -3.6 35 35 SSW 12 19 30.16 1021 10 16 0.00 0.00
5:15 pm 17:15 Sunny 52 11.2 25 -3.8 35 35 S 10 17 30.15 1021 10 16 0.00 0.00
5:35 pm 17:35 Clear 51 10.8 25 -4 35 35 SSW 14 22 30.16 1021 10 16 0.00 0.00
5:55 pm 17:55 Clear 51 10.6 25 -3.7 37 37 SSW 10 17 30.16 1021 10 16 0.00 0.00
6:15 pm 18:15 Clear 51 10.8 25 -3.7 36 36 SSW 13 20 30.15 1021 10 16 0.00 0.00
6:35 pm 18:35 Clear 52 10.9 25 -3.8 36 36 SSW 13 20 30.16 1021 10 16 0.00 0.00
6:55 pm 18:55 Clear 51 10.6 26 -3.6 37 37 SSW 12 19 30.16 1021 10 16 0.00 0.00
7:15 pm 19:15 Clear 51 10.3 26 -3.5 38 38 SSW 12 19 30.16 1021 10 16 0.00 0.00
7:35 pm 19:35 Clear 50 10.1 26 -3.2 39 39 SSW 10 17 30.16 1021 10 16 0.00 0.00
7:55 pm 19:55 Partly Cloudy 50 10.1 26 -3.2 39 39 SSW 9 15 30.16 1021 10 16 0.00 0.00
8:15 pm 20:15 Cloudy 51 10.8 26 -3.5 37 37 SW 10 17 30.16 1021 10 16 0.00 0.00
8:35 pm 20:35 Cloudy 51 10.6 26 -3.5 37 37 SSW 10 17 30.15 1021 10 16 0.00 0.00
8:55 pm 20:55 Cloudy 51 10.4 26 -3.4 38 38 SSW 9 15 30.15 1021 10 16 0.00 0.00
9:15 pm 21:15 Cloudy 51 10.5 26 -3.4 38 38 SSW 9 15 30.15 1021 10 16 0.00 0.00
9:35 pm 21:35 Cloudy 51 10.6 26 -3.6 37 37 SSW 8 13 30.15 1021 10 16 0.00 0.00
9:55 pm 21:55 Cloudy 51 10.5 26 -3.6 37 37 SSW 9 15 30.15 1021 10 16 0.00 0.00
10:15 pm 22:15 Cloudy 51 10.6 25 -3.7 37 37 SW 9 15 30.15 1021 10 16 0.00 0.00
10:35 pm 22:35 Cloudy 51 10.5 26 -3.6 37 37 SSW 9 15 30.15 1021 10 16 0.00 0.00
10:55 pm 22:55 Cloudy 51 10.4 26 -3.6 38 38 SSW 10 17 30.14 1021 10 16 0.00 0.00
11:15 pm 23:15 Cloudy 51 10.5 25 -3.7 37 37 SSW 12 19 30.14 1021 10 16 0.00 0.00
11:35 pm 23:35 Cloudy 51 10.4 26 -3.6 38 38 SSW 12 19 30.14 1021 10 16 0.00 0.00
11:55 pm 23:55 Cloudy 51 10.6 25 -3.8 36 36 SW 12 19 30.15 1021 10 16 0.00 0.00

Powered by AerisWeather